Weather in Yertsevo

Russia / Arkhangel'skaya Oblast'     60°47′48″N   40°05′07″E
temp.,
°C
wind,
m/s
gust,
m/s
humid.,
%
clouds,
%
prec.,
mm/h
press.,
hPa
HPBL,
m
24 september, fri
fri2400:00+8ese31094100 0.0 1012651
03:00+8ese41196100 0.1 1010681
06:00+8ese41097100 0.3 1008680
09:00+8se41097100 2.3 1007648
12:00+8se41095100 1.6 1007665
15:00+8se3895100 1.7 1007544
18:00+8se4991100 0.0 1008624
21:00+7se3109622 0.1 1008426
25 september, sat
sat2500:00+6se299795 0.1 1009364
03:00+5sse399769 0.1 1009296
06:00+4se399993 0.0 1009318
09:00+7sse4890100 0.0 1008530
12:00+10sse4874100 0.0 1008827
15:00+10sse487476 0.1 1007794
18:00+9se31084100 0.1 1007551
21:00+8se31088100 0.3 1007572
26 september, sun
sun2600:00+8se31088100 0.1 1006503
03:00+7se3994100 0.2 1006348
06:00+7se3993100 0.1 1008418
09:00+8se3889100 0.2 1009465
12:00+9ese3687100 0.4 1011495
15:00+11e357990 0.8 1014741
18:00+7ne26945 0.3 1016151
21:00+5ne26975 0.3 1019130
27 september, mon
mon2700:00+5n279633 0.0 1021152
03:00+6n3991100 0.0 1022334
06:00+7n3995100 0.0 1023481
09:00+7nne3994100 0.0 1025566
12:00+7nne3793100 0.1 1026626
15:00+8nne3791100 0.1 1028536
18:00+7ne3792100 0.2 1029527
21:00+7ene2794100 0.2 1031493
28 september, tue
tue2800:00+5ne249778 0.0 1032150
03:00+5ne139645 0.0 1033135
06:00+5ne1396100 0.0 103398
09:00+6ne1392100 0.0 1034195
12:00+8nne1280100 0.0 1034541
15:00+9n1273100 0.0 1034659
18:00+6n118971 0.0 103512
21:00+4nw11936 0.0 103510